Probability
0 0 0 0 0 0 0 0 0 0 0 0 0 0 0 0 0 0 0 0 0 0 0 0 0 0 0 0 0 0 0 0 0 0 0 0 0 0 0 0 0 0 0
0 0 0 0 0 0 0 0 0 0 0 0 0 0 0 0 0 0 0 0 0 0 0 0 0 0 0 0 0 0 0 0 0 0 0 0 0 0 0 0 0 0 0
0 0 0 0 0 0 0 0 0 0 0 0 0 0 0 0 0 0 0 0 0 0 0 0 0 0 0 0 0 0 0 0 0 0 0 0 0 0 0 0 0 0 0
0 0 0 0 0 0 0 0 0 0 0 0 0 0 0 0 0 0 0 0 0 0 0 0 0 0 0 0 0 0 0 0 0 0 0 0 0 0 0 0 0 0 0
0 0 0 0 0 0 0 0 0 0 0 0 0 0 0 0 0 0 0 0 0 0 0 0 0 0 0 0 0 0 0 0 0 0 0 0 0 0 0 0 0 0 0
0 0 0 0 0 0 0 0 0 0 0 0 0 0 0 0 0 0 0 0 0 0 0 0 0 0 0 0 0 0 0 0 0 0 0 0 0 0 0 0 0 0 0
0 0 0 0 0 0 0 0 0 0 0 0 0 0 0 0 0 0 0 0 0 0 0 0 0 0 0 0 0 0 0 0 0 0 0 0 0 0 0 0 0 0 0
0 0 0 0 0 0 0 0 0 0 0 0 0 0 0 0 0 0 0 0 0 0 0 0 0 0 0 0 0 0 0 0 0 0 0 0 0 0 0 0 0 0 0
0 0 0 0 0 0 0 0 0 0 0 0 0 0 0 0 0 0 0 0 0 0 0 0 0 0 0 0 0 0 0 0 0 0 0 0 0 0 0 0 0 0 0
0 0 0 0 0 0 0 0 0 0 0 0 0 0 0 0 0 0 0 0 0 0 0 0 0 0 0 0 0 0 0 0 0 0 0 0 0 0 0 0 0 0 0
0 0 0 0 0 0 0 0 0 0 0 0 0 0 0 0 0 0 0 0 0 0 0 0 0 0 0 0 0 0 0 0 0 0 0 0 0 0 0 0 0 0 0
0 0 0 0 0 0 0 0 0 0 0 0 0 0 0 0 0 0 0 0 0 0 0 0 0 0 0 0 0 0 0 0 0 0 0 0 0 0 0 0 0 0 0
0 0 0 0 0 0 0 0 0 0 0 0 0 0 0 0 0 0 0 0 0 0 0 0 0 0 0 0 0 0 0 0 0 0 0 0 0 0 0 0 0 0 0
0 0 0 0 0 0 0 0 0 0 0 0 0 0 0 0 0 0 0 0 0 0 0 0 0 0 0 0 0 0 0 0 0 0 0 0 0 0 0 0 0 0 0
0 0 0 0 0 0 0 0 0 0 0 0 0 0 0 0 0 0 0 0 0 0 0 0 0 0 0 0 0 0 0 0 0 0 0 0 0 0 0 0 0 0 0
0 0 0 0 0 0 0 0 0 0 0 0 0 0 0 0 0 0 0 0 0 0 0 0 0 0 0 0 0 0 0 0 0 0 0 0 0 0 0 0 0 0 0
0 0 0 0 0 0 0 0 0 0 0 0 0 0 0 0 0 0 0 0 0 0 0 0 0 0 0 0 0 0 0 0 0 0 0 0 0 0 0 0 0 0 0
0 0 0 0 0 0 0 0 0 0 0 0 0 0 0 0 0 0 0 0 0 0 0 0 0 0 0 0 0 0 0 0 0 0 0 0 0 0 0 0 0 0 0
0 0 0 0 0 0 0 0 0 0 0 0 0 0 0 0 0 0 0 0 0 0 0 0 0 0 0 0 0 0 0 0 0 0 0 0 0 0 0 0 0 0 0
0 0 0 0 0 0 0 0 0 0 0 0 0 0 0 0 0 0 0 0 0 0 0 0 0 0 0 0 0 0 0 0 0 0 0 0 0 0 0 0 0 0 0
0 0 0 0 0 0 0 0 0 0 0 0 0 0 0 0 0 0 0 0 0 0 0 0 0 0 0 0 0 0 0 0 0 0 0 0 0 0 0 0 0 0 0
0 0 0 0 0 0 0 0 0 0 0 0 0 0 0 0 0 0 0 0 0 0 0 0 0 0 0 0 0 0 0 0 0 0 0 0 0 0 0 0 0 0 0
0 0 0 0 0 0 0 0 0 0 0 0 0 0 0 0 0 0 0 0 0 0 0 0 0 0 0 0 0 0 0 0 0 0 0 0 0 0 0 0 0 0 0
0 0 0 0 0 0 0 0 0 0 0 0 0 0 0 0 0 0 0 0 0 0 0 0 0 0 0 0 0 0 0 0 0 0 0 0 0 0 0 0 0 0 0
0 0 0 0 0 0 0 0 0 0 0 0 0 0 0 0 0 0 0 0 0 0 0 0 0 0 0 0 0 0 0 0 0 0 0 0 0 0 0 0 0 0 0
0 0 0 0 0 0 0 0 0 0 0 0 0 0 0 0 0 0 0 0 0 0 0 0 0 0 0 0 0 0 0 0 0 0 0 0 0 0 0 0 0 0 0
Height
5631 5635 5639 5644 5648 5653 5658 5663 5667 5671 5675 5678 5680 5682 5683 5684 5684 5684 5683 5682 5680 5677 5674 5670 5665 5661 5656 5650 5645 5639 5633 5627 5622 5616 5608 5601 5593 5586 5579 5571 5564 5556 5548
5613 5618 5623 5628 5633 5639 5645 5650 5656 5660 5664 5668 5670 5672 5674 5674 5675 5674 5674 5672 5670 5666 5663 5658 5653 5648 5642 5637 5631 5625 5618 5611 5605 5599 5592 5583 5574 5566 5559 5551 5542 5533 5523
5597 5602 5608 5614 5620 5626 5633 5639 5645 5650 5655 5659 5662 5664 5665 5665 5665 5665 5664 5662 5659 5655 5651 5646 5641 5635 5629 5623 5616 5610 5602 5595 5587 5580 5573 5564 5556 5546 5538 5529 5519 5508 5496
5584 5590 5596 5602 5609 5616 5623 5630 5637 5642 5647 5651 5654 5655 5656 5656 5656 5655 5654 5651 5648 5643 5639 5634 5628 5621 5615 5608 5601 5594 5586 5578 5569 5561 5554 5545 5536 5525 5515 5507 5498 5484 5471
5575 5581 5587 5594 5601 5609 5616 5624 5630 5635 5640 5643 5646 5647 5648 5648 5647 5646 5644 5640 5636 5631 5626 5620 5614 5607 5600 5593 5585 5577 5569 5561 5552 5543 5534 5525 5515 5504 5493 5482 5472 5462 5448
5569 5575 5582 5589 5597 5605 5612 5619 5624 5629 5633 5636 5638 5639 5639 5639 5638 5636 5633 5629 5624 5619 5613 5607 5600 5593 5585 5577 5568 5560 5550 5541 5532 5523 5514 5503 5492 5480 5469 5458 5447 5438 5430
5567 5573 5580 5587 5595 5602 5609 5615 5620 5624 5627 5629 5631 5632 5632 5630 5628 5625 5622 5617 5612 5607 5600 5593 5586 5578 5569 5561 5552 5543 5532 5520 5511 5501 5491 5479 5468 5457 5446 5436 5425 5416 5407
5569 5574 5580 5587 5594 5600 5606 5611 5615 5619 5621 5623 5624 5624 5623 5621 5618 5615 5611 5606 5600 5594 5587 5580 5572 5563 5554 5545 5537 5526 5514 5502 5491 5479 5468 5456 5444 5433 5424 5417 5408 5402 5393
5572 5577 5582 5588 5593 5599 5604 5608 5612 5614 5616 5616 5617 5616 5614 5612 5609 5605 5600 5594 5588 5581 5573 5565 5557 5548 5539 5530 5520 5509 5496 5483 5469 5457 5445 5434 5424 5415 5407 5401 5394 5387 5381
5577 5581 5585 5590 5594 5598 5602 5605 5607 5609 5610 5610 5609 5608 5605 5602 5598 5594 5589 5583 5576 5568 5560 5551 5542 5532 5522 5511 5500 5489 5477 5464 5451 5438 5427 5417 5409 5400 5392 5386 5379 5372 5365
5581 5584 5588 5591 5594 5597 5600 5602 5603 5604 5604 5603 5602 5599 5596 5592 5588 5583 5577 5570 5563 5555 5546 5537 5526 5516 5504 5493 5481 5470 5458 5447 5435 5425 5415 5405 5396 5388 5380 5372 5364 5357 5350
5586 5588 5590 5592 5594 5596 5597 5598 5599 5599 5598 5596 5594 5591 5587 5582 5577 5571 5565 5557 5550 5541 5532 5521 5510 5498 5487 5475 5463 5452 5441 5431 5422 5413 5404 5395 5387 5378 5369 5360 5352 5344 5336
5589 5590 5591 5593 5594 5594 5595 5594 5594 5593 5591 5588 5585 5581 5577 5572 5566 5560 5552 5544 5535 5526 5516 5504 5493 5481 5469 5458 5447 5437 5428 5419 5411 5403 5395 5386 5377 5368 5359 5351 5342 5334 5326
5590 5591 5591 5592 5592 5591 5591 5590 5588 5586 5583 5580 5576 5572 5567 5562 5556 5548 5540 5531 5521 5510 5499 5487 5475 5464 5453 5443 5434 5425 5418 5411 5403 5395 5387 5378 5368 5359 5350 5342 5334 5327 5320
5591 5590 5590 5589 5588 5587 5586 5584 5582 5579 5576 5572 5568 5564 5558 5552 5544 5536 5527 5517 5506 5495 5482 5470 5459 5449 5439 5431 5423 5416 5410 5402 5395 5387 5379 5370 5360 5351 5342 5333 5326 5319 5312
5590 5589 5587 5586 5584 5582 5580 5578 5575 5572 5569 5565 5560 5555 5548 5541 5533 5524 5514 5503 5491 5478 5467 5456 5446 5437 5429 5422 5416 5409 5403 5396 5388 5380 5371 5363 5353 5344 5336 5327 5319 5312 5306
5587 5585 5584 5582 5580 5578 5575 5572 5569 5566 5562 5557 5551 5545 5538 5530 5521 5511 5500 5488 5476 5464 5454 5444 5436 5429 5422 5416 5410 5404 5397 5390 5382 5374 5365 5357 5348 5339 5330 5322 5314 5307 5301
5584 5582 5580 5577 5575 5572 5569 5566 5562 5558 5554 5548 5542 5535 5527 5518 5508 5498 5486 5474 5463 5453 5444 5436 5430 5423 5417 5412 5405 5399 5392 5385 5377 5369 5361 5352 5343 5335 5326 5318 5310 5304 5298
5580 5578 5575 5573 5570 5567 5564 5560 5556 5551 5546 5540 5533 5525 5516 5506 5496 5485 5473 5463 5453 5444 5437 5431 5425 5419 5413 5407 5401 5395 5388 5381 5374 5366 5357 5349 5341 5332 5324 5316 5308 5302 5296
5576 5573 5571 5568 5565 5561 5558 5554 5549 5543 5537 5531 5523 5514 5505 5494 5484 5473 5463 5453 5445 5438 5432 5426 5421 5415 5410 5404 5398 5391 5385 5378 5370 5363 5355 5347 5339 5331 5323 5315 5308 5302 5297
5571 5569 5566 5563 5559 5555 5551 5547 5541 5535 5528 5521 5513 5504 5494 5483 5473 5463 5454 5446 5439 5433 5428 5422 5417 5412 5407 5401 5395 5388 5381 5375 5368 5360 5353 5345 5338 5330 5323 5316 5310 5304 5298
5567 5564 5560 5557 5553 5549 5544 5539 5533 5527 5520 5511 5502 5493 5483 5473 5463 5454 5446 5440 5434 5429 5424 5419 5414 5409 5404 5398 5392 5386 5379 5372 5366 5359 5352 5345 5337 5331 5324 5317 5311 5305 5299
5561 5558 5554 5551 5547 5542 5537 5532 5525 5518 5510 5502 5493 5483 5473 5463 5454 5447 5440 5435 5430 5425 5421 5416 5411 5406 5401 5395 5389 5383 5377 5371 5364 5358 5351 5344 5338 5331 5325 5319 5312 5306 5300
5555 5552 5548 5544 5540 5535 5529 5524 5517 5509 5501 5492 5482 5473 5463 5454 5446 5440 5435 5430 5426 5422 5417 5412 5407 5402 5397 5392 5386 5381 5375 5369 5362 5356 5350 5344 5338 5331 5325 5319 5314 5308 5302
5549 5545 5541 5537 5532 5527 5522 5515 5508 5500 5491 5482 5473 5463 5454 5446 5439 5434 5430 5426 5422 5418 5413 5409 5404 5399 5394 5389 5384 5378 5373 5367 5361 5355 5349 5343 5337 5332 5326 5320 5315 5309 5303
5542 5539 5534 5530 5525 5519 5513 5507 5499 5491 5482 5473 5463 5454 5446 5439 5433 5428 5424 5421 5417 5413 5409 5405 5400 5395 5391 5386 5381 5375 5370 5365 5359 5354 5348 5343 5337 5332 5327 5321 5316 5310 5304
Wind_Speed
55 56 57 57 56 55 54 53 51 50 49 48 47 46 45 44 43 42 41 42 43 44 46 49 51 53 55 56 58 60 62 64 64 65 67 68 69 70 71 73 75 77 79
51 52 54 54 54 53 52 51 49 48 47 46 45 43 42 42 41 40 41 42 44 46 48 51 53 56 58 60 61 63 64 66 67 68 69 70 72 73 75 77 79 82 85
45 47 49 50 51 50 50 48 46 45 44 43 41 40 40 39 39 39 40 43 45 47 50 53 56 59 60 62 63 65 66 67 69 70 71 72 74 77 79 81 84 87 90
39 41 43 45 46 46 45 44 42 41 40 38 38 37 37 36 36 38 40 44 46 49 53 56 59 60 62 64 65 66 68 69 71 72 73 75 77 80 83 85 87 89 89
33 35 36 38 41 41 40 39 37 36 35 34 34 34 33 34 36 38 41 46 49 52 56 59 61 62 64 65 67 68 69 70 72 73 75 77 81 84 87 89 88 85 81
26 28 29 31 34 34 33 32 32 31 31 31 31 31 32 34 36 39 44 48 51 55 57 60 62 63 65 66 68 69 71 72 74 77 80 83 86 88 88 85 82 76 68
20 23 24 26 27 28 28 27 27 27 27 27 28 29 31 35 39 43 47 51 53 56 59 61 62 64 65 67 68 70 72 76 79 82 84 87 87 85 81 74 68 63 58
17 19 21 22 23 22 22 22 22 23 24 25 27 30 34 38 42 46 49 51 54 57 59 61 62 63 65 67 70 72 76 80 83 85 85 84 79 73 67 61 56 53 50
17 18 19 19 19 19 18 19 19 21 22 25 30 34 36 40 43 46 49 52 54 56 58 60 62 64 67 70 73 76 79 81 82 81 78 72 66 61 56 53 50 49 47
16 16 16 16 16 16 17 18 20 23 26 29 31 34 37 40 44 47 49 51 53 55 58 61 64 67 71 73 75 77 77 77 75 71 65 60 56 53 51 50 49 48 47
14 14 13 13 13 14 16 18 20 23 26 28 30 34 38 41 44 47 49 51 53 56 59 63 66 70 73 75 76 75 73 69 64 57 53 51 50 49 50 49 48 48 47
9 9 10 10 11 13 16 18 20 23 26 29 32 35 38 41 43 46 49 52 55 58 62 66 70 72 74 74 72 69 64 57 51 47 46 46 47 47 47 47 47 47 45
4 5 6 7 10 12 15 17 21 24 27 30 32 35 38 41 43 47 50 54 58 62 66 70 72 72 71 68 63 57 51 45 43 42 43 44 45 45 45 44 44 42 42
2 4 6 8 11 13 16 19 22 25 28 30 33 35 38 42 45 49 53 57 62 66 69 70 70 67 63 57 51 45 40 39 39 40 41 43 43 44 43 42 39 38 36
6 7 9 11 13 16 18 21 24 26 28 30 33 37 40 44 48 52 56 60 64 67 67 66 62 57 51 45 40 37 36 36 37 39 40 41 41 41 40 39 37 35 33
9 11 13 14 16 18 20 22 24 27 29 32 35 39 43 47 51 55 58 62 64 64 61 56 51 45 40 36 33 33 34 34 36 37 39 39 38 38 37 36 34 32 30
13 14 15 17 18 20 22 24 26 28 31 34 38 42 46 49 53 57 60 62 61 57 52 46 40 36 32 30 30 31 31 32 34 36 37 37 36 35 34 33 31 29 27
15 16 17 19 20 22 24 26 28 31 34 37 41 45 48 52 55 59 60 59 55 48 42 36 32 29 28 28 29 29 29 31 33 34 35 35 34 33 33 31 29 26 23
17 18 19 21 22 24 26 28 30 33 37 40 44 48 51 54 57 58 57 52 46 39 34 30 27 26 26 27 27 28 29 30 32 33 33 33 33 32 31 29 27 24 22
19 20 22 23 24 26 28 30 33 36 39 43 46 50 53 56 56 55 50 43 37 32 28 26 24 24 25 26 27 28 29 30 31 31 31 31 32 31 29 28 25 23 21
21 22 24 25 26 28 30 33 36 39 42 46 49 52 55 55 53 49 43 35 30 27 25 24 23 23 24 25 26 28 28 29 30 30 30 30 30 29 28 26 24 23 22
23 24 25 27 28 30 32 35 38 41 45 48 50 53 54 52 49 43 35 29 26 24 23 22 22 23 23 24 26 27 28 28 28 29 29 29 28 27 26 24 24 23 23
25 26 27 28 30 32 35 37 40 43 47 49 52 53 52 49 44 36 30 25 23 22 22 22 22 23 23 24 24 25 26 27 27 27 28 27 26 25 24 24 23 24 23
26 27 29 30 32 34 36 39 42 45 48 51 52 52 50 45 38 31 26 23 21 22 22 22 23 23 23 23 24 25 26 26 26 26 26 25 24 23 23 23 23 24 24
28 29 30 32 34 36 38 41 44 47 49 51 52 50 46 39 33 27 24 22 21 21 22 22 22 22 23 23 24 24 25 25 25 25 25 24 23 23 22 23 23 24 24
29 30 32 34 35 37 40 43 45 48 49 50 51 47 41 35 29 25 23 22 21 21 21 22 22 22 23 24 24 24 24 24 24 25 24 23 22 21 21 22 23 24 23
Wind_Direction
251 249 247 245 245 245 244 245 246 247 250 252 255 258 261 264 267 270 272 276 280 284 287 290 292 293 293 293 294 295 296 296 296 297 297 297 297 296 296 296 296 296 295
249 246 243 241 241 241 240 241 243 245 247 250 254 257 260 263 267 270 273 278 281 285 288 290 291 292 292 294 295 295 296 297 297 297 298 297 297 297 297 297 297 297 297
245 242 240 238 237 236 236 237 239 242 245 249 253 256 260 264 267 271 275 279 282 285 288 290 290 291 292 294 295 296 297 297 298 298 298 298 298 298 298 299 299 299 299
241 237 236 234 233 231 231 233 235 239 243 248 252 256 261 265 269 273 276 280 284 286 288 288 290 292 293 295 296 297 298 299 299 299 299 299 299 299 300 300 300 300 299
232 230 230 229 227 226 227 228 232 237 241 246 252 257 262 268 272 275 278 281 283 284 285 289 292 293 295 296 298 299 299 299 299 299 300 300 300 300 301 301 301 300 299
220 219 220 220 219 219 220 224 230 234 240 246 252 259 264 268 272 276 279 280 282 284 288 292 294 296 297 299 300 300 301 301 301 301 301 302 302 302 302 302 301 300 298
203 205 205 206 208 211 215 221 227 232 239 247 253 260 265 271 274 275 278 282 286 289 292 294 296 298 299 300 301 302 302 302 302 303 303 303 303 304 303 303 302 302 300
184 186 188 191 196 203 209 218 227 235 243 250 257 263 268 272 275 279 282 285 289 292 294 296 298 300 301 301 302 303 303 303 303 304 305 306 305 305 305 304 303 302 301
162 167 174 180 187 196 207 217 228 239 249 259 262 266 272 277 280 283 287 291 294 296 298 299 300 301 302 302 303 304 305 305 306 307 307 306 306 306 305 305 305 304 304
148 157 167 175 185 196 211 226 236 244 253 262 269 274 278 283 286 290 293 295 298 300 301 302 303 304 304 304 305 306 306 307 308 308 307 307 307 307 307 307 307 307 306
145 158 174 191 202 212 224 235 246 257 265 272 278 282 286 289 293 295 297 299 301 302 303 304 304 305 305 306 307 307 308 309 308 308 308 309 309 310 310 310 310 310 309
155 175 187 198 215 231 240 251 262 270 276 281 286 290 293 296 298 300 302 303 304 304 305 306 306 306 307 308 309 309 310 310 311 311 312 312 312 313 313 312 312 312 311
166 198 223 234 246 259 267 274 280 284 288 292 295 298 300 301 303 304 305 306 307 307 308 308 308 308 309 310 311 311 312 313 314 315 316 316 316 316 315 314 314 314 314
265 271 274 276 279 282 285 288 291 294 297 299 301 303 304 306 307 308 308 309 309 310 310 310 310 311 311 312 313 314 315 316 317 318 319 319 319 319 319 318 317 316 315
313 303 298 295 294 295 297 298 300 301 303 305 306 307 308 309 310 310 311 311 312 312 312 312 313 313 314 315 316 317 318 319 321 322 323 324 323 323 322 322 321 320 318
309 305 303 303 303 304 305 305 306 307 307 308 309 310 311 312 312 313 314 315 315 315 315 316 316 317 318 320 321 321 322 323 325 326 327 328 328 328 327 326 325 325 324
310 309 308 309 309 310 310 310 310 310 310 311 312 313 314 315 315 316 317 318 318 318 319 319 320 321 323 324 325 326 327 328 330 331 332 333 334 334 334 333 331 330 329
313 312 312 312 312 312 312 312 312 313 314 314 315 316 317 317 318 319 320 320 320 321 322 323 324 325 327 329 330 331 332 333 335 336 338 339 340 340 340 340 340 339 338
315 313 313 312 312 313 313 313 314 315 316 317 318 318 319 320 321 321 322 322 323 324 325 326 326 328 330 333 334 335 336 337 339 341 342 344 345 346 347 348 349 350 350
313 313 312 312 312 312 312 313 315 316 317 319 320 320 321 322 323 323 324 324 325 326 327 327 328 329 332 334 336 337 338 340 342 344 346 348 350 351 353 355 357 358 359
311 311 311 311 312 312 313 314 316 318 319 320 321 322 323 324 324 324 325 325 326 328 328 329 329 331 333 335 337 339 340 342 344 346 349 351 353 355 357 360 1 2 1
309 310 311 311 312 312 314 315 317 319 321 321 322 324 325 325 325 325 325 325 327 328 330 331 331 333 334 336 338 340 342 344 346 348 350 352 354 357 359 360 1 1 0
309 310 311 311 312 313 315 316 318 320 322 323 324 325 326 325 325 324 323 324 325 328 331 332 333 334 335 336 339 341 342 344 346 348 350 352 354 356 359 360 1 2 2
308 309 310 312 313 314 316 318 319 321 323 324 325 326 326 325 324 322 322 322 324 327 330 332 333 334 335 336 338 340 342 344 346 348 350 352 355 357 359 0 2 3 2
308 309 310 312 313 315 317 319 321 322 324 325 326 326 326 324 322 320 319 319 322 326 329 331 333 334 335 336 337 339 342 344 345 347 349 351 354 356 357 360 1 2 3
309 310 311 312 314 315 318 320 322 324 325 325 326 326 324 322 319 316 315 317 320 323 327 331 332 334 335 336 336 338 340 342 344 346 347 349 352 354 355 357 359 1 3